EXS78LQ EGBB-LTAI

Flight info

Callsign EXS78LQ
Flight time N/A
Altitude 33000
Route ADMEX Y321 EMKUK UL612 COWLY Q70 BIG UL9 KONAN DCT KOK UL607 REMBA DCT LIRSU DCT KRH DCT UTABA DCT MOMUK DCT GEDSO DCT VEKEN DCT ALIVO/N0461F350 DCT RASTU DCT GLOMY DCT POD DCT RINAV DCT BONZI DCT BITLA DCT ELPIS DCT GIKAS DCT RIKSO UN128 IMR UN135 NESIL
Aircraft B738/M-SDE2E3FGHIRWXY/LB1

Departure

Time 2026-05-06 13:42
Airport Birmingham Airport (EGBB)

Arrival

Time N/A
Airport Antalya International Airport (LTAI)
Time Latitude Longitude Altitude Speed Heading
2026-05-06 12:52 52.45153 -1.73447 330 ft 0 kts 145°
2026-05-06 13:20 52.45155 -1.73449 327 ft 0 kts 146°
2026-05-06 13:21 52.45170 -1.73464 326 ft 0 kts 159°
2026-05-06 13:21 52.45188 -1.73471 327 ft 0 kts 184°
2026-05-06 13:21 52.45206 -1.73463 329 ft 0 kts 217°
2026-05-06 13:21 52.45216 -1.73449 328 ft 0 kts 234°
2026-05-06 13:22 52.45216 -1.73448 328 ft 0 kts 234°
2026-05-06 13:31 52.44375 -1.73683 334 ft 0 kts 326°
2026-05-06 13:33 52.44376 -1.73684 336 ft 0 kts 326°
2026-05-06 13:33 52.44376 -1.73685 336 ft 0 kts 326°
2026-05-06 13:34 52.44377 -1.73685 336 ft 0 kts 326°
2026-05-06 13:34 52.44870 -1.73451 326 ft 0 kts 108°
2026-05-06 13:35 52.44870 -1.73450 326 ft 0 kts 108°
2026-05-06 13:37 52.44871 -1.73446 326 ft 0 kts 77°
2026-05-06 13:37 52.44875 -1.73444 327 ft 0 kts 36°
2026-05-06 13:37 52.44881 -1.73445 327 ft 2 kts 359°
2026-05-06 13:37 52.44893 -1.73475 327 ft 6 kts 298°
2026-05-06 13:38 52.44896 -1.73559 329 ft 9 kts 246°
2026-05-06 13:38 52.44853 -1.73662 329 ft 11 kts 218°
2026-05-06 13:38 52.44764 -1.73721 327 ft 17 kts 198°
2026-05-06 13:38 52.44681 -1.73696 331 ft 14 kts 149°
2026-05-06 13:39 52.44591 -1.73598 335 ft 17 kts 146°
2026-05-06 13:39 52.44491 -1.73486 336 ft 17 kts 146°
2026-05-06 13:39 52.44403 -1.73413 344 ft 13 kts 186°
2026-05-06 13:39 52.44342 -1.73513 350 ft 12 kts 238°
2026-05-06 13:40 52.44311 -1.73599 344 ft 6 kts 250°
2026-05-06 13:40 52.44326 -1.73632 351 ft 4 kts 326°
2026-05-06 13:40 52.44351 -1.73659 338 ft 8 kts 326°
2026-05-06 13:40 52.44385 -1.73696 337 ft 0 kts 326°
2026-05-06 13:41 52.44411 -1.73726 333 ft 21 kts 326°
2026-05-06 13:41 52.44732 -1.74079 328 ft 89 kts 326°
2026-05-06 13:41 52.45412 -1.74835 324 ft 145 kts 325°
2026-05-06 13:42 52.46360 -1.75902 539 ft 173 kts 328°
2026-05-06 13:42 52.47343 -1.76974 1498 ft 166 kts 330°
2026-05-06 13:42 52.48323 -1.78014 2204 ft 174 kts 329°
2026-05-06 13:42 52.49352 -1.79110 2966 ft 172 kts 333°
2026-05-06 13:43 52.50474 -1.79742 3690 ft 173 kts 356°
2026-05-06 13:43 52.51651 -1.79563 4362 ft 175 kts 17°
2026-05-06 13:43 52.52810 -1.78573 4576 ft 200 kts 39°
2026-05-06 13:43 52.53713 -1.76684 4808 ft 220 kts 65°
2026-05-06 13:44 52.53967 -1.74162 5280 ft 232 kts 93°
2026-05-06 13:44 52.53624 -1.71515 5800 ft 241 kts 101°
2026-05-06 13:44 52.53239 -1.68819 5964 ft 248 kts 102°
2026-05-06 13:44 52.52438 -1.66308 6017 ft 257 kts 130°
2026-05-06 13:45 52.51111 -1.64140 6013 ft 275 kts 134°
2026-05-06 13:45 52.48355 -1.59734 6245 ft 270 kts 133°
2026-05-06 13:45 52.46986 -1.57525 6421 ft 281 kts 133°
2026-05-06 13:46 52.45525 -1.55385 6543 ft 282 kts 144°
2026-05-06 13:46 52.43786 -1.54010 6699 ft 285 kts 165°
2026-05-06 13:46 52.41825 -1.53210 7322 ft 288 kts 166°
2026-05-06 13:46 52.39872 -1.52443 8095 ft 289 kts 167°
2026-05-06 13:47 52.37903 -1.51669 8807 ft 293 kts 167°
2026-05-06 13:47 52.35905 -1.50875 9510 ft 297 kts 167°
2026-05-06 13:47 52.33891 -1.50069 10200 ft 300 kts 167°
2026-05-06 13:47 52.31809 -1.49230 10521 ft 318 kts 167°
2026-05-06 13:48 52.29618 -1.48343 10706 ft 338 kts 167°
2026-05-06 13:48 52.27273 -1.47392 10876 ft 358 kts 167°
2026-05-06 13:48 52.24786 -1.46382 11020 ft 378 kts 167°
2026-05-06 13:48 52.22175 -1.45319 11253 ft 393 kts 167°
2026-05-06 13:49 52.19493 -1.44227 11704 ft 400 kts 167°
2026-05-06 13:49 52.16792 -1.43127 12404 ft 400 kts 167°
2026-05-06 13:49 52.14078 -1.42023 13039 ft 403 kts 167°
2026-05-06 13:49 52.11348 -1.40915 13617 ft 407 kts 167°
2026-05-06 13:50 52.08581 -1.39794 14183 ft 410 kts 167°
2026-05-06 13:50 52.05813 -1.38673 14729 ft 412 kts 167°
2026-05-06 13:50 52.03027 -1.37548 15227 ft 415 kts 167°
2026-05-06 13:50 52.00199 -1.36408 15716 ft 419 kts 167°
2026-05-06 13:51 51.97384 -1.35131 16243 ft 422 kts 161°
2026-05-06 13:51 51.94720 -1.33199 16775 ft 425 kts 154°
2026-05-06 13:51 51.92091 -1.31035 17263 ft 429 kts 154°
2026-05-06 13:51 51.89405 -1.28808 17715 ft 432 kts 154°
2026-05-06 13:52 51.86717 -1.26596 18216 ft 435 kts 154°
2026-05-06 13:52 51.83997 -1.24384 18637 ft 438 kts 155°
2026-05-06 13:52 51.81266 -1.22184 19080 ft 439 kts 155°
2026-05-06 13:52 51.78520 -1.19982 19536 ft 440 kts 155°
2026-05-06 13:53 51.75760 -1.17777 19924 ft 444 kts 155°
2026-05-06 13:53 51.72980 -1.15558 20296 ft 447 kts 155°
2026-05-06 13:53 51.70182 -1.13326 20711 ft 449 kts 155°
2026-05-06 13:53 51.67396 -1.11108 21122 ft 450 kts 155°
2026-05-06 13:54 51.64601 -1.08742 21500 ft 454 kts 148°
2026-05-06 13:54 51.62185 -1.05527 21838 ft 460 kts 134°
2026-05-06 13:54 51.60256 -1.01394 22222 ft 464 kts 121°
2026-05-06 13:54 51.58942 -0.96650 22605 ft 467 kts 111°
2026-05-06 13:55 51.57807 -0.91765 22953 ft 469 kts 111°
2026-05-06 13:55 51.56625 -0.86865 23265 ft 472 kts 112°
2026-05-06 13:55 51.55389 -0.81946 23589 ft 474 kts 113°
2026-05-06 13:55 51.54132 -0.77046 23879 ft 475 kts 113°
2026-05-06 13:56 51.52858 -0.72120 24169 ft 477 kts 113°
2026-05-06 13:56 51.51581 -0.67192 24464 ft 478 kts 113°
2026-05-06 13:56 51.50306 -0.62268 24753 ft 479 kts 113°
2026-05-06 13:56 51.49038 -0.57368 25019 ft 481 kts 113°
2026-05-06 13:57 51.47739 -0.52354 25282 ft 482 kts 113°
2026-05-06 13:57 51.46452 -0.47389 25551 ft 483 kts 113°
2026-05-06 13:57 51.45159 -0.42410 25934 ft 482 kts 113°
2026-05-06 13:57 51.43893 -0.37547 26334 ft 480 kts 113°
2026-05-06 13:58 51.42603 -0.32600 26706 ft 479 kts 113°
2026-05-06 13:58 51.41318 -0.27687 27052 ft 478 kts 113°
2026-05-06 13:58 51.40034 -0.22786 27424 ft 477 kts 114°
2026-05-06 13:58 51.38746 -0.17881 27787 ft 476 kts 114°
2026-05-06 13:59 51.37466 -0.13017 28164 ft 474 kts 114°
2026-05-06 13:59 51.36614 -0.09787 28416 ft 474 kts 114°
2026-05-06 13:59 51.34899 -0.03287 28884 ft 473 kts 114°
2026-05-06 13:59 51.33630 0.01534 29248 ft 472 kts 112°
2026-05-06 14:00 51.32612 0.06532 29599 ft 472 kts 103°
2026-05-06 14:00 51.31975 0.11659 29946 ft 471 kts 101°
2026-05-06 14:00 51.31397 0.16813 30281 ft 470 kts 101°
2026-05-06 14:00 51.30806 0.21972 30557 ft 469 kts 101°
2026-05-06 14:01 51.30195 0.27018 30816 ft 469 kts 102°
2026-05-06 14:01 51.29555 0.32131 31084 ft 469 kts 102°
2026-05-06 14:01 51.28922 0.37233 31341 ft 468 kts 102°
2026-05-06 14:01 51.28303 0.42340 31641 ft 467 kts 101°
2026-05-06 14:02 51.27688 0.47441 31899 ft 467 kts 101°
2026-05-06 14:02 51.27072 0.52518 32165 ft 466 kts 101°
2026-05-06 14:02 51.26450 0.57600 32394 ft 466 kts 101°
2026-05-06 14:02 51.25806 0.62655 32626 ft 465 kts 102°
2026-05-06 14:03 51.25133 0.67715 32851 ft 465 kts 102°
2026-05-06 14:03 51.24466 0.72703 33103 ft 464 kts 102°
2026-05-06 14:03 51.23809 0.77822 33340 ft 464 kts 102°
2026-05-06 14:03 51.23179 0.82859 33578 ft 463 kts 102°
2026-05-06 14:04 51.22555 0.87861 33810 ft 462 kts 102°
2026-05-06 14:04 51.21922 0.92903 34067 ft 460 kts 102°
2026-05-06 14:04 51.21294 0.97845 34253 ft 460 kts 102°
2026-05-06 14:04 51.20652 1.02861 34381 ft 461 kts 102°
2026-05-06 14:05 51.20002 1.07857 34523 ft 461 kts 102°
2026-05-06 14:05 51.19345 1.12861 34674 ft 461 kts 102°
2026-05-06 14:05 51.18686 1.17867 34831 ft 461 kts 102°
2026-05-06 14:05 51.18025 1.22877 34920 ft 460 kts 102°
2026-05-06 14:06 51.16705 1.32854 34952 ft 461 kts 103°
2026-05-06 14:06 51.15818 1.42941 34959 ft 465 kts 95°
2026-05-06 14:07 51.15395 1.53278 34962 ft 468 kts 94°
2026-05-06 14:07 51.14950 1.63670 34952 ft 469 kts 95°
2026-05-06 14:08 51.14445 1.74006 34947 ft 467 kts 95°
2026-05-06 14:08 51.13916 1.84309 34948 ft 464 kts 95°
2026-05-06 14:09 51.13393 1.94418 34956 ft 460 kts 95°
2026-05-06 14:09 51.12857 2.04626 34953 ft 458 kts 96°
2026-05-06 14:10 51.12322 2.14660 34957 ft 458 kts 96°
2026-05-06 14:10 51.11770 2.24821 34966 ft 462 kts 96°
2026-05-06 14:11 51.11207 2.35069 34961 ft 467 kts 96°
2026-05-06 14:11 51.10631 2.45398 34942 ft 468 kts 96°
2026-05-06 14:12 51.10053 2.55627 34933 ft 465 kts 96°
2026-05-06 14:12 51.09391 2.65801 34926 ft 459 kts 102°
2026-05-06 14:13 51.07746 2.75540 34932 ft 454 kts 108°
2026-05-06 14:13 51.05927 2.85148 34949 ft 455 kts 108°
2026-05-06 14:14 51.04118 2.94855 34945 ft 459 kts 108°
2026-05-06 14:14 51.02320 3.04639 34943 ft 464 kts 107°
2026-05-06 14:15 51.00503 3.14509 34928 ft 467 kts 108°
2026-05-06 14:15 50.98986 3.22714 34909 ft 463 kts 108°
2026-05-06 14:16 50.97172 3.32467 34899 ft 457 kts 108°
2026-05-06 14:16 50.95368 3.42116 34910 ft 454 kts 108°
2026-05-06 14:17 50.93572 3.51677 34903 ft 452 kts 108°
2026-05-06 14:17 50.91769 3.61225 34898 ft 451 kts 108°
2026-05-06 14:18 50.89960 3.70687 34903 ft 451 kts 108°
2026-05-06 14:18 50.88112 3.80212 34900 ft 453 kts 108°
2026-05-06 14:19 50.86249 3.89776 34893 ft 455 kts 108°
2026-05-06 14:19 50.84377 3.99359 34890 ft 458 kts 109°
2026-05-06 14:20 50.82478 4.09032 34888 ft 460 kts 109°
2026-05-06 14:20 50.80572 4.18696 34883 ft 461 kts 109°
2026-05-06 14:21 50.78654 4.28373 34884 ft 462 kts 109°
2026-05-06 14:21 50.76724 4.38062 34882 ft 461 kts 109°
2026-05-06 14:22 50.74792 4.47716 34879 ft 460 kts 109°
2026-05-06 14:22 50.72860 4.57322 34881 ft 459 kts 109°
2026-05-06 14:23 50.70957 4.66921 34880 ft 457 kts 109°
2026-05-06 14:23 50.69111 4.76493 34883 ft 456 kts 108°
2026-05-06 14:24 50.67252 4.86046 34864 ft 455 kts 109°
2026-05-06 14:24 50.65152 4.95385 34885 ft 451 kts 116°
2026-05-06 14:25 50.62451 5.04308 34886 ft 450 kts 118°
2026-05-06 14:25 50.59695 5.13165 34879 ft 450 kts 117°
2026-05-06 14:26 50.56973 5.22041 34881 ft 451 kts 117°
2026-05-06 14:26 50.54281 5.30897 34889 ft 452 kts 117°
2026-05-06 14:27 50.51564 5.39827 34886 ft 454 kts 117°
2026-05-06 14:27 50.48821 5.48809 34875 ft 456 kts 117°
2026-05-06 14:28 50.46068 5.57790 34878 ft 457 kts 117°
2026-05-06 14:28 50.43302 5.66775 34866 ft 457 kts 117°
2026-05-06 14:29 50.40543 5.75705 34864 ft 458 kts 118°
2026-05-06 14:29 50.37760 5.84681 34850 ft 459 kts 118°
2026-05-06 14:30 50.34955 5.93692 34854 ft 459 kts 118°
2026-05-06 14:30 50.32149 6.02677 34846 ft 459 kts 118°
2026-05-06 14:31 50.29342 6.11631 34837 ft 459 kts 118°
2026-05-06 14:31 50.26517 6.20612 34825 ft 459 kts 118°
2026-05-06 14:32 50.23691 6.29563 34816 ft 459 kts 118°
2026-05-06 14:32 50.20863 6.38495 34798 ft 459 kts 119°
2026-05-06 14:33 50.17821 6.47114 34794 ft 455 kts 129°
2026-05-06 14:33 50.13781 6.54686 34796 ft 452 kts 133°
2026-05-06 14:34 50.09687 6.62088 34803 ft 451 kts 133°
2026-05-06 14:34 50.05583 6.69571 34805 ft 450 kts 133°
2026-05-06 14:35 50.01540 6.76991 34796 ft 450 kts 133°
2026-05-06 14:35 49.97507 6.84391 34807 ft 449 kts 133°
2026-05-06 14:36 49.93462 6.91796 34802 ft 449 kts 133°
2026-05-06 14:36 49.89412 6.99187 34798 ft 448 kts 133°
2026-05-06 14:37 49.85365 7.06549 34798 ft 448 kts 133°
2026-05-06 14:37 49.81336 7.13857 34804 ft 448 kts 133°
2026-05-06 14:38 49.77280 7.21193 34800 ft 449 kts 133°
2026-05-06 14:38 49.73192 7.28568 34800 ft 449 kts 133°
2026-05-06 14:39 49.69133 7.35869 34793 ft 451 kts 133°
2026-05-06 14:39 49.65042 7.43207 34771 ft 451 kts 134°
2026-05-06 14:40 49.60947 7.50532 34774 ft 450 kts 134°
2026-05-06 14:40 49.56860 7.57823 34772 ft 450 kts 134°
2026-05-06 14:41 49.52757 7.65120 34772 ft 450 kts 134°
2026-05-06 14:41 49.48654 7.72398 34783 ft 449 kts 134°
2026-05-06 14:42 49.44553 7.79652 34770 ft 450 kts 134°
2026-05-06 14:42 49.40438 7.86911 34771 ft 449 kts 134°
2026-05-06 14:43 49.36325 7.94145 34787 ft 449 kts 134°
2026-05-06 14:43 49.32242 8.01308 34796 ft 449 kts 135°
2026-05-06 14:44 49.28118 8.08522 34799 ft 449 kts 135°
2026-05-06 14:45 49.21919 8.19330 34791 ft 450 kts 135°
2026-05-06 14:45 49.17774 8.26532 34790 ft 450 kts 135°
2026-05-06 14:46 49.14336 8.32492 34790 ft 451 kts 135°
2026-05-06 14:46 49.09504 8.40843 34795 ft 451 kts 136°
2026-05-06 14:47 49.05345 8.48014 34795 ft 451 kts 136°
2026-05-06 14:47 49.01168 8.55194 34794 ft 451 kts 136°
2026-05-06 14:48 48.96706 8.61749 34803 ft 444 kts 146°
2026-05-06 14:48 48.91847 8.67545 34809 ft 443 kts 147°
2026-05-06 14:49 48.86975 8.73320 34794 ft 443 kts 147°
2026-05-06 14:49 48.82135 8.79108 34799 ft 443 kts 147°
2026-05-06 14:50 48.77296 8.84915 34796 ft 442 kts 147°
2026-05-06 14:50 48.72482 8.90683 34811 ft 441 kts 147°
2026-05-06 14:51 48.67652 8.96453 34799 ft 441 kts 147°
2026-05-06 14:51 48.62863 9.02159 34802 ft 440 kts 147°
2026-05-06 14:52 48.58055 9.07873 34804 ft 439 kts 147°
2026-05-06 14:52 48.53247 9.13572 34806 ft 439 kts 147°
2026-05-06 14:53 48.48452 9.19243 34801 ft 439 kts 147°
2026-05-06 14:53 48.44447 9.23969 34799 ft 438 kts 148°
2026-05-06 14:54 48.39645 9.29622 34803 ft 438 kts 148°
2026-05-06 14:54 48.34839 9.35267 34799 ft 438 kts 148°
2026-05-06 14:55 48.30026 9.40908 34799 ft 438 kts 148°
2026-05-06 14:55 48.25216 9.46541 34792 ft 440 kts 147°
2026-05-06 14:56 48.20531 9.52495 34792 ft 442 kts 144°
2026-05-06 14:56 48.15900 9.58586 34793 ft 443 kts 145°
2026-05-06 14:57 48.11277 9.64609 34797 ft 443 kts 145°
2026-05-06 14:57 48.08151 9.68647 34787 ft 447 kts 145°
2026-05-06 14:58 48.06642 9.70590 34794 ft 448 kts 145°
2026-05-06 14:58 48.01899 9.76687 34778 ft 448 kts 146°
2026-05-06 14:59 47.97220 9.82697 34792 ft 439 kts 146°
2026-05-06 14:59 47.92595 9.88613 34804 ft 437 kts 146°
2026-05-06 15:00 47.88000 9.94477 34825 ft 438 kts 146°
2026-05-06 15:00 47.83543 10.00868 34823 ft 454 kts 135°
2026-05-06 15:01 47.80113 10.08947 34826 ft 467 kts 126°
2026-05-06 15:01 47.76884 10.17384 34819 ft 470 kts 126°
2026-05-06 15:02 47.73623 10.25814 34823 ft 471 kts 127°
2026-05-06 15:02 47.70341 10.34160 34840 ft 471 kts 127°
2026-05-06 15:03 47.67020 10.42535 34844 ft 470 kts 127°
2026-05-06 15:03 47.63703 10.50870 34829 ft 468 kts 127°
2026-05-06 15:04 47.60387 10.59180 34832 ft 467 kts 127°
2026-05-06 15:04 47.57079 10.67448 34829 ft 465 kts 128°
2026-05-06 15:05 47.53798 10.75620 34815 ft 463 kts 127°
2026-05-06 15:05 47.50503 10.83807 34802 ft 463 kts 128°
2026-05-06 15:06 47.47200 10.91984 34782 ft 462 kts 128°
2026-05-06 15:06 47.43902 11.00124 34763 ft 460 kts 128°
2026-05-06 15:07 47.40622 11.08202 34784 ft 459 kts 128°
2026-05-06 15:07 47.37324 11.16299 34798 ft 462 kts 128°
2026-05-06 15:08 47.33977 11.24476 34775 ft 468 kts 128°
2026-05-06 15:08 47.30579 11.32760 34781 ft 474 kts 128°
2026-05-06 15:09 47.27211 11.40968 34763 ft 467 kts 129°
2026-05-06 15:09 47.23839 11.49156 34759 ft 463 kts 129°
2026-05-06 15:10 47.20513 11.57187 34772 ft 462 kts 129°
2026-05-06 15:10 47.17160 11.65266 34770 ft 463 kts 129°
2026-05-06 15:11 47.13791 11.73371 34767 ft 465 kts 129°
2026-05-06 15:11 47.10416 11.81458 34792 ft 465 kts 129°
2026-05-06 15:12 47.07106 11.89706 34792 ft 473 kts 124°
2026-05-06 15:12 47.04176 11.98426 34799 ft 478 kts 123°
2026-05-06 15:13 47.01298 12.07228 34831 ft 479 kts 123°
2026-05-06 15:13 46.98386 12.16007 34845 ft 477 kts 123°
2026-05-06 15:14 46.95474 12.24664 34867 ft 477 kts 123°
2026-05-06 15:14 46.92539 12.33335 34871 ft 475 kts 123°
2026-05-06 15:15 46.89612 12.41960 34879 ft 472 kts 123°
2026-05-06 15:15 46.86695 12.50527 34864 ft 469 kts 123°
2026-05-06 15:16 46.83796 12.59038 34864 ft 465 kts 123°
2026-05-06 15:16 46.80874 12.67538 34868 ft 472 kts 123°
2026-05-06 15:17 46.77913 12.76130 34830 ft 475 kts 123°
2026-05-06 15:17 46.74938 12.84760 34849 ft 477 kts 123°
2026-05-06 15:18 46.71943 12.93420 34867 ft 478 kts 123°
2026-05-06 15:18 46.68932 13.02096 34869 ft 479 kts 123°
2026-05-06 15:19 46.65950 13.10660 34873 ft 479 kts 123°
2026-05-06 15:19 46.62932 13.19300 34866 ft 476 kts 123°
2026-05-06 15:20 46.59934 13.27857 34866 ft 473 kts 123°
2026-05-06 15:20 46.56830 13.36278 34870 ft 465 kts 130°
2026-05-06 15:21 46.52652 13.43156 34896 ft 449 kts 144°
2026-05-06 15:21 46.48006 13.49249 34901 ft 450 kts 145°
2026-05-06 15:22 46.43356 13.55349 34890 ft 452 kts 144°
2026-05-06 15:22 46.38719 13.61488 34891 ft 454 kts 144°
2026-05-06 15:23 46.34059 13.67675 34905 ft 455 kts 144°
2026-05-06 15:23 46.29398 13.73855 34904 ft 455 kts 144°
2026-05-06 15:24 46.24706 13.80057 34899 ft 455 kts 144°
2026-05-06 15:24 46.20030 13.86224 34910 ft 456 kts 143°
2026-05-06 15:25 46.15329 13.92406 34924 ft 457 kts 143°
2026-05-06 15:25 46.10619 13.98585 34930 ft 457 kts 143°
2026-05-06 15:26 46.05918 14.04740 34939 ft 455 kts 143°
2026-05-06 15:26 46.01225 14.10868 34934 ft 455 kts 143°
2026-05-06 15:27 45.96533 14.16980 34923 ft 454 kts 143°
2026-05-06 15:27 45.91854 14.23060 34923 ft 453 kts 143°
2026-05-06 15:28 45.87175 14.29125 34931 ft 453 kts 143°
2026-05-06 15:28 45.82517 14.35149 34937 ft 454 kts 143°
2026-05-06 15:29 45.77820 14.41210 34956 ft 454 kts 143°
2026-05-06 15:29 45.73106 14.47278 34943 ft 456 kts 143°
2026-05-06 15:30 45.68391 14.53334 34956 ft 456 kts 143°
2026-05-06 15:30 45.63660 14.59397 34945 ft 457 kts 143°
2026-05-06 15:31 45.58934 14.65440 34948 ft 457 kts 143°
2026-05-06 15:31 45.54182 14.71502 34956 ft 457 kts 143°
2026-05-06 15:32 45.47739 14.81663 34945 ft 465 kts 134°
2026-05-06 15:32 45.43713 14.88862 34944 ft 464 kts 134°
2026-05-06 15:33 45.39641 14.96060 34942 ft 464 kts 134°
2026-05-06 15:33 45.35567 15.03178 34944 ft 463 kts 134°
2026-05-06 15:34 45.32177 15.09072 34931 ft 463 kts 134°
2026-05-06 15:34 45.28096 15.16149 34943 ft 463 kts 135°
2026-05-06 15:35 45.23346 15.24365 34934 ft 464 kts 134°
2026-05-06 15:35 45.19905 15.30305 34932 ft 465 kts 134°
2026-05-06 15:36 45.15798 15.37379 34940 ft 466 kts 134°
2026-05-06 15:36 45.11673 15.44467 34924 ft 466 kts 134°
2026-05-06 15:37 45.07567 15.51505 34931 ft 466 kts 135°
2026-05-06 15:37 45.03428 15.58580 34944 ft 466 kts 135°
2026-05-06 15:38 44.99288 15.65643 34938 ft 467 kts 135°
2026-05-06 15:38 44.95140 15.72700 34946 ft 467 kts 135°
2026-05-06 15:39 44.90778 15.79442 34944 ft 464 kts 140°
2026-05-06 15:39 44.86246 15.85858 34957 ft 464 kts 140°
2026-05-06 15:40 44.81691 15.92276 34958 ft 464 kts 140°
2026-05-06 15:40 44.77101 15.98794 34956 ft 465 kts 140°
2026-05-06 15:41 44.72560 16.05265 34961 ft 466 kts 140°
2026-05-06 15:41 44.68024 16.11719 34959 ft 467 kts 140°
2026-05-06 15:42 44.63441 16.18225 34961 ft 466 kts 140°
2026-05-06 15:42 44.58877 16.24686 34955 ft 467 kts 140°
2026-05-06 15:43 44.54293 16.31159 34959 ft 467 kts 140°
2026-05-06 15:43 44.49715 16.37608 34963 ft 467 kts 140°
2026-05-06 15:44 44.45143 16.44032 34966 ft 468 kts 140°
2026-05-06 15:44 44.40513 16.50522 34968 ft 469 kts 140°
2026-05-06 15:45 44.35917 16.56952 34984 ft 470 kts 140°
2026-05-06 15:45 44.31290 16.63410 34980 ft 470 kts 140°
2026-05-06 15:46 44.26653 16.69865 34990 ft 471 kts 140°
2026-05-06 15:46 44.22003 16.76324 34992 ft 472 kts 140°
2026-05-06 15:47 44.17345 16.82777 34992 ft 472 kts 140°
2026-05-06 15:47 44.12708 16.89187 34992 ft 473 kts 140°
2026-05-06 15:48 44.08026 16.95645 35006 ft 473 kts 140°
2026-05-06 15:48 44.03351 17.02077 34999 ft 473 kts 140°
2026-05-06 15:49 43.98678 17.08492 35005 ft 473 kts 140°
2026-05-06 15:49 43.93996 17.14905 35021 ft 472 kts 140°
2026-05-06 15:50 43.89326 17.21284 35002 ft 472 kts 140°
2026-05-06 15:50 43.84631 17.27685 35014 ft 472 kts 140°
2026-05-06 15:51 43.79956 17.34043 35013 ft 471 kts 141°
2026-05-06 15:51 43.75274 17.40395 34984 ft 471 kts 141°
2026-05-06 15:52 43.70596 17.46727 35017 ft 470 kts 140°
2026-05-06 15:52 43.65949 17.53005 35003 ft 470 kts 140°
2026-05-06 15:53 43.61271 17.59310 35011 ft 470 kts 140°
2026-05-06 15:53 43.56591 17.65605 35030 ft 468 kts 140°
2026-05-06 15:54 43.51963 17.71937 35034 ft 469 kts 139°
2026-05-06 15:54 43.47382 17.78336 35035 ft 469 kts 139°
2026-05-06 15:55 43.42803 17.84719 35037 ft 470 kts 139°
2026-05-06 15:55 43.38193 17.91110 35041 ft 471 kts 139°
2026-05-06 15:56 43.33561 17.97506 35041 ft 472 kts 139°
2026-05-06 15:56 43.28911 18.03910 35046 ft 473 kts 139°
2026-05-06 15:57 43.24264 18.10296 35039 ft 473 kts 138°
2026-05-06 15:57 43.19602 18.16689 35042 ft 473 kts 138°
2026-05-06 15:58 43.14977 18.23017 35045 ft 473 kts 138°
2026-05-06 15:58 43.10316 18.29378 35046 ft 473 kts 138°
2026-05-06 15:59 43.05642 18.35743 35045 ft 474 kts 138°
2026-05-06 15:59 43.00966 18.42097 35046 ft 474 kts 138°
2026-05-06 16:00 42.96275 18.48457 35053 ft 475 kts 138°
2026-05-06 16:00 42.91573 18.54817 35044 ft 476 kts 138°
2026-05-06 16:01 42.86855 18.61184 35054 ft 477 kts 139°
2026-05-06 16:01 42.82171 18.67491 35059 ft 478 kts 139°
2026-05-06 16:02 42.77425 18.73869 35065 ft 478 kts 139°
2026-05-06 16:02 42.72688 18.80218 35073 ft 479 kts 139°
2026-05-06 16:03 42.67941 18.86567 35144 ft 480 kts 138°
2026-05-06 16:03 42.63167 18.92939 35078 ft 479 kts 139°
2026-05-06 16:04 42.58402 18.99282 35087 ft 479 kts 139°
2026-05-06 16:04 42.53653 19.05591 35093 ft 480 kts 139°
2026-05-06 16:05 42.48887 19.11907 35086 ft 479 kts 139°
2026-05-06 16:05 42.44125 19.18207 35086 ft 478 kts 139°
2026-05-06 16:06 42.39368 19.24485 35080 ft 478 kts 139°
2026-05-06 16:06 42.34644 19.30754 35074 ft 477 kts 139°
2026-05-06 16:07 42.29914 19.37079 35075 ft 477 kts 139°
2026-05-06 16:07 42.25197 19.43371 35079 ft 477 kts 139°
2026-05-06 16:08 42.20461 19.49666 35087 ft 477 kts 139°
2026-05-06 16:08 42.15747 19.55914 35083 ft 478 kts 139°
2026-05-06 16:09 42.10992 19.62203 35087 ft 479 kts 139°
2026-05-06 16:09 42.06223 19.68500 35085 ft 480 kts 139°
2026-05-06 16:10 42.01443 19.74798 35078 ft 481 kts 139°
2026-05-06 16:10 41.96695 19.81149 35073 ft 483 kts 136°
2026-05-06 16:11 41.92134 19.87814 35081 ft 484 kts 135°
2026-05-06 16:11 41.87639 19.94498 35077 ft 485 kts 135°
2026-05-06 16:12 41.83086 20.01186 35084 ft 486 kts 135°
2026-05-06 16:12 41.78500 20.07862 35069 ft 487 kts 135°
2026-05-06 16:13 41.73904 20.14530 35074 ft 487 kts 135°
2026-05-06 16:13 41.69302 20.21193 35075 ft 488 kts 135°
2026-05-06 16:14 41.64696 20.27852 35081 ft 488 kts 135°
2026-05-06 16:14 41.60095 20.34487 35069 ft 489 kts 135°
2026-05-06 16:15 41.55466 20.41151 35070 ft 490 kts 135°
2026-05-06 16:15 41.50971 20.47595 35071 ft 489 kts 136°
2026-05-06 16:16 41.46302 20.54188 35064 ft 488 kts 136°
2026-05-06 16:16 41.41613 20.60771 35064 ft 488 kts 136°
2026-05-06 16:17 41.36962 20.67297 35063 ft 488 kts 136°
2026-05-06 16:17 41.32287 20.73852 35074 ft 488 kts 136°
2026-05-06 16:18 41.28408 20.79282 35050 ft 487 kts 136°
2026-05-06 16:18 41.22943 20.86913 35047 ft 487 kts 136°
2026-05-06 16:19 41.19042 20.92348 35054 ft 488 kts 135°
2026-05-06 16:19 41.14349 20.98872 35038 ft 489 kts 135°
2026-05-06 16:20 41.09644 21.05400 35047 ft 489 kts 135°
2026-05-06 16:20 41.04939 21.11914 35040 ft 490 kts 135°
2026-05-06 16:21 41.00235 21.18412 35032 ft 492 kts 135°
2026-05-06 16:21 40.95487 21.24957 35042 ft 492 kts 135°
2026-05-06 16:22 40.90733 21.31498 35031 ft 494 kts 135°
2026-05-06 16:22 40.86318 21.38413 35013 ft 496 kts 122°
2026-05-06 16:23 40.82902 21.46297 35031 ft 496 kts 119°
2026-05-06 16:23 40.79531 21.54277 35027 ft 496 kts 119°
2026-05-06 16:24 40.76121 21.62197 35033 ft 496 kts 120°
2026-05-06 16:24 40.72676 21.70086 35025 ft 496 kts 120°
2026-05-06 16:25 40.69208 21.77988 35027 ft 497 kts 120°
2026-05-06 16:25 40.65767 21.85814 35022 ft 497 kts 120°
2026-05-06 16:26 40.62288 21.93710 35019 ft 498 kts 120°
2026-05-06 16:26 40.58821 22.01561 35023 ft 497 kts 120°
2026-05-06 16:27 40.55337 22.09430 35020 ft 497 kts 120°
2026-05-06 16:27 40.51840 22.17306 35013 ft 497 kts 120°
2026-05-06 16:28 40.48353 22.25141 35018 ft 497 kts 120°
2026-05-06 16:28 40.44858 22.32976 35014 ft 497 kts 120°
2026-05-06 16:29 40.41384 22.40743 35027 ft 497 kts 120°
2026-05-06 16:29 40.37871 22.48578 35018 ft 497 kts 120°
2026-05-06 16:30 40.34922 22.55141 35019 ft 497 kts 120°
2026-05-06 16:30 40.30932 22.64297 35018 ft 497 kts 116°
2026-05-06 16:31 40.27824 22.72332 35027 ft 497 kts 115°
2026-05-06 16:31 40.24741 22.80458 35023 ft 498 kts 115°
2026-05-06 16:32 40.21625 22.88544 35028 ft 498 kts 115°
2026-05-06 16:32 40.18469 22.96631 35028 ft 499 kts 116°
2026-05-06 16:33 40.15299 23.04711 35033 ft 499 kts 116°
2026-05-06 16:34 40.10529 23.16833 35037 ft 500 kts 116°
2026-05-06 16:34 40.07359 23.24870 35035 ft 500 kts 116°
2026-05-06 16:35 40.04186 23.32890 35038 ft 500 kts 116°
2026-05-06 16:35 40.01589 23.39440 35041 ft 500 kts 116°
2026-05-06 16:36 39.99479 23.44751 35043 ft 501 kts 116°
2026-05-06 16:36 39.96377 23.52542 35035 ft 501 kts 116°
2026-05-06 16:37 39.93162 23.60595 35042 ft 500 kts 116°
2026-05-06 16:37 39.89941 23.68641 35039 ft 500 kts 116°
2026-05-06 16:38 39.86731 23.76640 35047 ft 500 kts 116°
2026-05-06 16:38 39.83508 23.84649 35046 ft 499 kts 116°
2026-05-06 16:39 39.80282 23.92643 35047 ft 499 kts 116°
2026-05-06 16:39 39.77044 24.00646 35046 ft 499 kts 116°
2026-05-06 16:40 39.73813 24.08613 35048 ft 498 kts 116°
2026-05-06 16:40 39.70568 24.16593 35050 ft 498 kts 116°
2026-05-06 16:41 39.67332 24.24529 35051 ft 498 kts 116°
2026-05-06 16:41 39.64086 24.32470 35058 ft 498 kts 116°
2026-05-06 16:42 39.60844 24.40380 35043 ft 498 kts 116°
2026-05-06 16:42 39.57590 24.48300 35057 ft 498 kts 116°
2026-05-06 16:43 39.54328 24.56219 35055 ft 498 kts 116°
2026-05-06 16:43 39.51056 24.64146 35056 ft 499 kts 116°
2026-05-06 16:44 39.47876 24.72120 35057 ft 498 kts 113°
2026-05-06 16:44 39.44922 24.80258 35066 ft 498 kts 112°
2026-05-06 16:45 39.41996 24.88379 35060 ft 499 kts 112°
2026-05-06 16:45 39.39016 24.96506 35068 ft 499 kts 112°
2026-05-06 16:46 39.36020 25.04589 35065 ft 500 kts 112°
2026-05-06 16:46 39.33016 25.12656 35065 ft 500 kts 113°
2026-05-06 16:47 39.29984 25.20783 35062 ft 500 kts 112°
2026-05-06 16:47 39.26955 25.28883 35065 ft 501 kts 112°
2026-05-06 16:48 39.23923 25.36973 35062 ft 501 kts 113°
2026-05-06 16:48 39.20901 25.45012 35071 ft 501 kts 113°
2026-05-06 16:49 39.17861 25.53078 35070 ft 501 kts 113°
2026-05-06 16:49 39.14805 25.61163 35077 ft 501 kts 113°
2026-05-06 16:50 39.11752 25.69221 35072 ft 501 kts 113°
2026-05-06 16:50 39.08701 25.77251 35076 ft 501 kts 113°
2026-05-06 16:51 39.05624 25.85327 35066 ft 501 kts 113°
2026-05-06 16:51 39.02557 25.93357 35069 ft 501 kts 113°
2026-05-06 16:52 38.99468 26.01422 35075 ft 500 kts 113°
2026-05-06 16:52 38.96400 26.09411 35079 ft 500 kts 113°
2026-05-06 16:53 38.93313 26.17429 35071 ft 500 kts 113°
2026-05-06 16:53 38.90228 26.25422 35073 ft 500 kts 113°
2026-05-06 16:54 38.87137 26.33412 35071 ft 500 kts 113°
2026-05-06 16:54 38.83891 26.41319 35063 ft 503 kts 121°
2026-05-06 16:55 38.79256 26.48115 35069 ft 506 kts 138°
2026-05-06 16:55 38.73922 26.53966 35067 ft 506 kts 139°
2026-05-06 16:56 38.68623 26.59748 35056 ft 506 kts 139°
2026-05-06 16:56 38.63280 26.65674 35064 ft 506 kts 138°
2026-05-06 16:57 38.57946 26.71624 35059 ft 506 kts 138°
2026-05-06 16:57 38.52683 26.77484 35063 ft 506 kts 138°
2026-05-06 16:58 38.47378 26.83371 35058 ft 506 kts 139°
2026-05-06 16:58 38.42069 26.89250 35059 ft 506 kts 139°
2026-05-06 16:59 38.36720 26.95163 35056 ft 507 kts 139°
2026-05-06 16:59 38.31873 27.01615 35059 ft 505 kts 123°
2026-05-06 17:00 38.28559 27.09390 35077 ft 499 kts 110°
2026-05-06 17:00 38.25878 27.17526 35060 ft 500 kts 110°
2026-05-06 17:01 38.23128 27.25707 35051 ft 501 kts 110°
2026-05-06 17:01 38.20335 27.33815 35053 ft 501 kts 111°
2026-05-06 17:02 38.17525 27.41935 35054 ft 502 kts 111°
2026-05-06 17:02 38.14717 27.50056 35075 ft 502 kts 111°
2026-05-06 17:03 38.12379 27.56832 35072 ft 503 kts 111°
2026-05-06 17:03 38.09576 27.64943 35079 ft 503 kts 111°
2026-05-06 17:04 38.06747 27.73102 35068 ft 503 kts 111°
2026-05-06 17:04 38.03942 27.81169 35059 ft 503 kts 111°
2026-05-06 17:05 38.00845 27.89109 35051 ft 504 kts 117°
2026-05-06 17:05 37.97687 27.97101 35044 ft 501 kts 111°
2026-05-06 17:06 37.94968 28.05156 35047 ft 499 kts 110°
2026-05-06 17:06 37.92262 28.13207 35050 ft 497 kts 111°
2026-05-06 17:07 37.89521 28.21139 35064 ft 496 kts 111°
2026-05-06 17:07 37.86699 28.29197 35069 ft 495 kts 111°
2026-05-06 17:08 37.83920 28.37105 35080 ft 495 kts 111°
2026-05-06 17:08 37.81128 28.45043 35077 ft 496 kts 112°
2026-05-06 17:09 37.78315 28.53022 35072 ft 497 kts 112°
2026-05-06 17:09 37.75498 28.60991 35083 ft 497 kts 112°
2026-05-06 17:10 37.72687 28.68926 35082 ft 497 kts 112°
2026-05-06 17:10 37.69821 28.76909 35084 ft 498 kts 112°
2026-05-06 17:11 37.66919 28.84871 35096 ft 498 kts 113°
2026-05-06 17:11 37.64011 28.92835 35079 ft 498 kts 113°
2026-05-06 17:12 37.61108 29.00786 34514 ft 506 kts 113°
2026-05-06 17:12 37.59641 29.04801 33898 ft 504 kts 113°
2026-05-06 17:12 37.58159 29.08846 33168 ft 504 kts 113°
2026-05-06 17:12 37.56705 29.12814 32486 ft 504 kts 113°
2026-05-06 17:13 37.55239 29.16806 31794 ft 504 kts 113°
2026-05-06 17:13 37.53756 29.20842 31068 ft 504 kts 114°
2026-05-06 17:13 37.52284 29.24841 30344 ft 505 kts 114°
2026-05-06 17:13 37.50807 29.28850 29484 ft 505 kts 114°
2026-05-06 17:14 37.49308 29.32910 28640 ft 504 kts 114°
2026-05-06 17:14 37.47821 29.36938 27790 ft 503 kts 114°
2026-05-06 17:14 37.46352 29.40907 26944 ft 503 kts 114°
2026-05-06 17:14 37.44866 29.44886 26566 ft 492 kts 115°
2026-05-06 17:15 37.43424 29.48659 26349 ft 479 kts 115°
2026-05-06 17:15 37.41992 29.52365 26133 ft 467 kts 115°
2026-05-06 17:15 37.40579 29.56017 25940 ft 454 kts 115°
2026-05-06 17:15 37.39228 29.59515 25744 ft 443 kts 115°
2026-05-06 17:16 37.37895 29.62976 25565 ft 433 kts 116°
2026-05-06 17:16 37.36596 29.66348 25382 ft 423 kts 115°
2026-05-06 17:16 37.35289 29.69603 25201 ft 413 kts 123°
2026-05-06 17:16 37.33492 29.72400 25097 ft 401 kts 130°
2026-05-06 17:17 37.31728 29.75020 25062 ft 387 kts 141°
2026-05-06 17:17 37.29471 29.76680 25034 ft 368 kts 166°
2026-05-06 17:17 37.26997 29.77438 25070 ft 371 kts 173°
2026-05-06 17:17 37.24403 29.78001 25095 ft 382 kts 175°
2026-05-06 17:18 37.21787 29.78518 25059 ft 389 kts 175°
2026-05-06 17:18 37.19067 29.79042 24626 ft 391 kts 175°
2026-05-06 17:18 37.16377 29.79552 24291 ft 390 kts 175°
2026-05-06 17:18 37.13732 29.80050 23940 ft 388 kts 175°
2026-05-06 17:19 37.11125 29.80960 23424 ft 396 kts 152°
2026-05-06 17:19 37.09047 29.83151 23079 ft 395 kts 126°
2026-05-06 17:19 37.07934 29.86229 22976 ft 381 kts 98°
2026-05-06 17:19 37.07981 29.89460 22835 ft 365 kts 71°
2026-05-06 17:20 37.08746 29.92422 22757 ft 356 kts 68°
2026-05-06 17:20 37.09522 29.95404 22459 ft 364 kts 63°
2026-05-06 17:20 37.10542 29.98324 22154 ft 367 kts 64°
2026-05-06 17:20 37.11341 30.01371 21874 ft 369 kts 74°
2026-05-06 17:21 37.11680 30.04545 21639 ft 367 kts 83°
2026-05-06 17:21 37.11868 30.07720 21401 ft 364 kts 84°
2026-05-06 17:21 37.11931 30.10906 20959 ft 368 kts 89°
2026-05-06 17:21 37.11806 30.14116 20477 ft 370 kts 92°
2026-05-06 17:22 37.11571 30.17323 19993 ft 371 kts 94°
2026-05-06 17:22 37.11307 30.20498 19513 ft 370 kts 95°
2026-05-06 17:22 37.11034 30.23682 19045 ft 369 kts 94°
2026-05-06 17:22 37.10766 30.26891 18569 ft 367 kts 94°
2026-05-06 17:23 37.10609 30.30067 18038 ft 364 kts 83°
2026-05-06 17:23 37.11245 30.33080 17501 ft 356 kts 60°
2026-05-06 17:23 37.12666 30.35564 16996 ft 346 kts 40°
2026-05-06 17:23 37.14587 30.37276 16553 ft 337 kts 23°
2026-05-06 17:24 37.16768 30.38202 16072 ft 328 kts
2026-05-06 17:24 37.19024 30.38553 15653 ft 324 kts
2026-05-06 17:24 37.21276 30.38809 15203 ft 321 kts
2026-05-06 17:24 37.23475 30.39062 14771 ft 319 kts
2026-05-06 17:25 37.25670 30.39337 14336 ft 317 kts
2026-05-06 17:25 37.27859 30.39625 13918 ft 315 kts
2026-05-06 17:25 37.30035 30.39916 13516 ft 311 kts
2026-05-06 17:25 37.32164 30.40204 13253 ft 302 kts
2026-05-06 17:26 37.34225 30.40481 12988 ft 295 kts
2026-05-06 17:26 37.36253 30.40753 12721 ft 290 kts
2026-05-06 17:26 37.38253 30.41022 12458 ft 288 kts
2026-05-06 17:26 37.40231 30.41288 12198 ft 286 kts
2026-05-06 17:27 37.42189 30.41551 11953 ft 285 kts
2026-05-06 17:27 37.44155 30.41816 11700 ft 283 kts
2026-05-06 17:27 37.46138 30.42083 11442 ft 283 kts
2026-05-06 17:27 37.48063 30.42342 11209 ft 283 kts
2026-05-06 17:28 37.50052 30.42610 11071 ft 284 kts
2026-05-06 17:28 37.52029 30.42876 11036 ft 288 kts
2026-05-06 17:28 37.53995 30.43141 11035 ft 287 kts
2026-05-06 17:28 37.55953 30.43478 11012 ft 284 kts 14°
2026-05-06 17:29 37.57703 30.44662 11027 ft 289 kts 40°